Waarnemingen

Advertentie
Mijn weer
Gela, Italië (16453): temperatuur & dauwpunt: 08.08.2018 15:00:00 - 14.08.2018 15:00:00 (CEST)Gela, Italië (16453): windsnelheid: 08.08.2018 15:00:00 - 14.08.2018 15:00:00 (CEST)Gela, Italië (16453): windrichting: 08.08.2018 15:00:00 - 14.08.2018 15:00:00 (CEST)Gela, Italië (16453): luchtdruk: 08.08.2018 15:00:00 - 14.08.2018 15:00:00 (CEST)Gela, Italië (16453): zicht: 08.08.2018 15:00:00 - 14.08.2018 15:00:00 (CEST)Gela, Italië (16453): Zonneschijnduur: 08.08.2018 15:00:00 - 14.08.2018 15:00:00 (CEST)
Datum & Tijd tt [°C] td [°C] ff [km/u] ff [kn] dd ppp [hPa] vv [km] sd [min]
14.08.2018 15:00:00 29,0 22,0 22 12 W - 10 -
14.08.2018 14:00:00 28,6 21,9 15 8 WZW 1012,1 15 60
14.08.2018 13:00:00 29,0 22,0 21 11 W - 10 -
14.08.2018 12:00:00 28,0 22,0 15 8 W - 10 -
14.08.2018 11:00:00 28,2 22,0 11 6 ZW 1013,2 12 60
14.08.2018 10:00:00 28,0 22,0 8 4 ZW - 10 -
14.08.2018 09:00:00 27,0 22,0 4 2 ONO - 10 -
14.08.2018 08:00:00 26,4 22,2 4 2 ONO 1013,0 12 48
14.08.2018 07:00:00 - - - - - - - -
14.08.2018 06:00:00 - - - - - - - -
14.08.2018 05:00:00 - - - - - - - -
14.08.2018 04:00:00 - - - - - - - -
14.08.2018 03:00:00 - - - - - - - -
14.08.2018 02:00:00 - - - - - - - -
14.08.2018 01:00:00 - - - - - - - -
14.08.2018 00:00:00 - - - - - - - -
13.08.2018 23:00:00 - - - - - - - -
13.08.2018 22:00:00 - - - - - - - -
13.08.2018 21:00:00 - - - - - - - -
13.08.2018 20:00:00 27,4 23,2 9 5 WZW 1012,8 12 0
13.08.2018 19:00:00 27,0 23,0 15 8 W - 10 -
13.08.2018 18:00:00 27,0 22,0 15 8 W - 10 -
13.08.2018 17:00:00 27,4 22,1 11 6 WZW 1013,4 12 0
13.08.2018 16:00:00 28,0 22,0 9 5 ZW - 10 -
13.08.2018 15:00:00 28,0 22,0 11 6 WZW - 10 -
13.08.2018 14:00:00 27,4 22,1 15 8 WZW 1014,7 12 48
13.08.2018 13:00:00 28,0 22,0 9 5 W - 10 -
13.08.2018 12:00:00 28,0 22,0 8 4 W - 10 -
13.08.2018 11:00:00 28,4 19,9 9 5 WZW 1015,3 15 30
13.08.2018 10:00:00 28,0 19,0 4 2 WNW - 10 -
13.08.2018 09:00:00 27,0 19,0 0 0 N - 10 -
13.08.2018 08:00:00 26,4 18,5 0 0 N 1014,6 15 30
13.08.2018 07:00:00 - - - - - - - -
13.08.2018 06:00:00 - - - - - - - -
13.08.2018 05:00:00 - - - - - - - -
13.08.2018 04:00:00 - - - - - - - -
13.08.2018 03:00:00 - - - - - - - -
13.08.2018 02:00:00 - - - - - - - -
13.08.2018 01:00:00 - - - - - - - -
13.08.2018 00:00:00 - - - - - - - -
12.08.2018 23:00:00 - - - - - - - -
12.08.2018 22:00:00 - - - - - - - -
12.08.2018 21:00:00 - - - - - - - -
12.08.2018 20:00:00 28,0 21,6 5 3 WZW 1015,6 12 18
12.08.2018 19:00:00 28,0 22,0 4 2 ZW - 10 -
12.08.2018 18:00:00 28,0 22,0 9 5 WZW - 10 -
12.08.2018 17:00:00 28,2 21,2 11 6 ZW 1015,9 10 60
12.08.2018 16:00:00 29,0 21,0 13 7 ZW - 10 -
12.08.2018 15:00:00 28,0 20,0 16 9 WZW - 10 -
12.08.2018 14:00:00 28,4 19,6 22 12 ZW 1016,3 13 60
12.08.2018 13:00:00 28,0 19,0 18 10 ZW - 10 -
12.08.2018 12:00:00 29,0 19,0 13 7 ZW - 10 -
12.08.2018 11:00:00 29,0 19,0 9 5 ZW 1016,5 15 60
12.08.2018 10:00:00 29,0 19,0 2 1 ZZO - 10 -
12.08.2018 09:00:00 27,0 19,0 2 1 O - 10 -
12.08.2018 08:00:00 26,4 18,5 0 0 N 1016,3 15 18
12.08.2018 07:00:00 - - - - - - - -
12.08.2018 06:00:00 - - - - - - - -
12.08.2018 05:00:00 - - - - - - - -
12.08.2018 04:00:00 - - - - - - - -
12.08.2018 03:00:00 - - - - - - - -
12.08.2018 02:00:00 - - - - - - - -
12.08.2018 01:00:00 - - - - - - - -
12.08.2018 00:00:00 - - - - - - - -
11.08.2018 23:00:00 - - - - - - - -
11.08.2018 22:00:00 - - - - - - - -
11.08.2018 21:00:00 - - - - - - - -
11.08.2018 20:00:00 27,8 20,4 4 2 ZZW 1015,9 11 0
11.08.2018 19:00:00 28,0 20,0 9 5 ZZW - 10 -
11.08.2018 18:00:00 28,0 21,0 5 3 ZZW - 10 -
11.08.2018 17:00:00 28,2 20,7 11 6 WZW 1016,3 15 60
11.08.2018 16:00:00 28,0 20,0 11 6 NW - 10 -
11.08.2018 15:00:00 28,0 20,0 15 8 ZW - 10 -
11.08.2018 14:00:00 28,4 19,4 16 9 ZW 1017,0 16 60
11.08.2018 13:00:00 29,0 19,0 15 8 ZZW - 10 -
11.08.2018 12:00:00 29,0 19,0 15 8 ZZW - 10 -
11.08.2018 11:00:00 29,0 19,6 8 4 ZZW 1017,5 15 60
11.08.2018 10:00:00 29,0 19,0 4 2 ZZW - 10 -
11.08.2018 09:00:00 28,0 19,0 0 0 N - 10 -
11.08.2018 08:00:00 26,2 19,6 4 2 NO 1017,4 20 48
11.08.2018 07:00:00 - - - - - - - -
11.08.2018 06:00:00 - - - - - - - -
11.08.2018 05:00:00 - - - - - - - -
11.08.2018 04:00:00 - - - - - - - -
11.08.2018 03:00:00 - - - - - - - -
11.08.2018 02:00:00 - - - - - - - -
11.08.2018 01:00:00 - - - - - - - -
11.08.2018 00:00:00 - - - - - - - -
10.08.2018 23:00:00 - - - - - - - -
10.08.2018 22:00:00 - - - - - - - -
10.08.2018 21:00:00 - - - - - - - -
10.08.2018 20:00:00 27,2 19,8 15 8 ZZW 1017,1 12 36
10.08.2018 19:00:00 28,0 20,0 16 9 W - 10 -
10.08.2018 18:00:00 29,0 20,0 15 8 W - 10 -
10.08.2018 17:00:00 29,2 20,4 18 10 W 1016,8 15 60
10.08.2018 16:00:00 29,0 20,0 21 11 W - 10 -
10.08.2018 15:00:00 29,0 19,0 16 9 W - 10 -
10.08.2018 14:00:00 28,8 18,9 21 11 W 1017,7 15 60
10.08.2018 13:00:00 29,0 18,0 11 6 WZW - 10 -
10.08.2018 12:00:00 29,0 18,0 16 9 W - 10 -
10.08.2018 11:00:00 29,0 17,5 8 4 ZW 1017,6 18 60
10.08.2018 10:00:00 28,0 19,0 4 2 W - 10 -
10.08.2018 09:00:00 27,0 18,0 4 2 WZW - 10 -
10.08.2018 08:00:00 25,8 17,2 4 2 ONO 1017,3 18 48
10.08.2018 07:00:00 - - - - - - - -
10.08.2018 06:00:00 - - - - - - - -
10.08.2018 05:00:00 - - - - - - - -
10.08.2018 04:00:00 - - - - - - - -
10.08.2018 03:00:00 - - - - - - - -
10.08.2018 02:00:00 - - - - - - - -
10.08.2018 01:00:00 - - - - - - - -
10.08.2018 00:00:00 - - - - - - - -
09.08.2018 23:00:00 - - - - - - - -
09.08.2018 22:00:00 - - - - - - - -
09.08.2018 21:00:00 - - - - - - - -
09.08.2018 20:00:00 27,6 20,2 11 6 W 1015,4 15 30
09.08.2018 19:00:00 28,0 20,0 9 5 W - 10 -
09.08.2018 18:00:00 28,0 20,0 9 5 WZW - 10 -
09.08.2018 17:00:00 28,2 19,2 9 5 WZW 1015,3 18 60
09.08.2018 16:00:00 28,0 19,0 11 6 WZW - 10 -
09.08.2018 15:00:00 28,0 19,0 13 7 ZW - 10 -
09.08.2018 14:00:00 28,0 17,8 15 8 ZW 1015,4 18 60
09.08.2018 13:00:00 28,0 17,0 16 9 ZW - 10 -
09.08.2018 12:00:00 28,0 17,0 16 9 ZZW - 10 -
09.08.2018 11:00:00 27,8 15,8 13 7 ZZW 1015,4 18 60
09.08.2018 10:00:00 28,0 15,0 9 5 ZZW - 10 -
09.08.2018 09:00:00 28,0 17,0 0 0 N - 10 -
09.08.2018 08:00:00 26,0 18,4 4 2 ONO 1014,9 18 48
09.08.2018 07:00:00 - - - - - - - -
09.08.2018 06:00:00 - - - - - - - -
09.08.2018 05:00:00 - - - - - - - -
09.08.2018 04:00:00 - - - - - - - -
09.08.2018 03:00:00 - - - - - - - -
09.08.2018 02:00:00 - - - - - - - -
09.08.2018 01:00:00 - - - - - - - -
09.08.2018 00:00:00 - - - - - - - -
08.08.2018 23:00:00 - - - - - - - -
08.08.2018 22:00:00 - - - - - - - -
08.08.2018 21:00:00 - - - - - - - -
08.08.2018 20:00:00 27,4 19,7 8 4 WZW 1013,8 18 24
08.08.2018 19:00:00 28,0 20,0 8 4 ZW - 10 -
08.08.2018 18:00:00 28,0 19,0 9 5 ZW - 10 -
08.08.2018 17:00:00 28,4 19,1 9 5 WZW 1013,3 20 12
08.08.2018 16:00:00 29,0 19,0 9 5 WZW - 10 -
08.08.2018 15:00:00 29,0 18,0 9 5 ZZW - 10 -

tt = temperatuur
td = dauwpunt
ff = windsnelheid
dd = windrichting
ppp = luchtdruk
vv = zicht
sd = Zonneschijnduur

Weerstations in de omgeving